AirNav   Everest Fuels
 
 1048 users online  

E67 Kearny Airport
Kearny, Arizona, USA

GOING TO KEARNY?


FAA INFORMATION EFFECTIVE 09 SEPTEMBER 2021

Location

FAA Identifier: E67
Lat/Long: 33-02-49.9000N 110-54-32.6000W
33-02.831667N 110-54.543333W
33.0471944,-110.9090556
(estimated)
Elevation: 1833 ft. / 559 m (estimated)
Variation: 12E (1985)
From city: 1 mile S of KEARNY, AZ
Time zone: UTC -7 (year round; does not observe DST)
Zip code: 85237

Airport Operations

Airport use: Open to the public
Activation date: 05/1962
Control tower: no
ARTCC: ALBUQUERQUE CENTER
FSS: PRESCOTT FLIGHT SERVICE STATION
NOTAMs facility: PRC (NOTAM-D service available)
Attendance: MON-FRI 0900-1700
EXCEPT HOLIDAYS
Wind indicator: yes
Segmented circle: no

Airport Communications

CTAF/UNICOM: 122.95

Airport Services

Parking: tiedowns
Airframe service: MAJOR
Powerplant service: MAJOR

Runway Information

Runway 8/26

Dimensions: 3400 x 60 ft. / 1036 x 18 m
Surface: concrete, in good condition
Weight bearing capacity: 
Single wheel: 12.5
RUNWAY 8  RUNWAY 26
Latitude: 33-02.851667N33-02.813000N
Longitude: 110-54.876000W110-54.211667W
Traffic pattern: leftleft
Displaced threshold: 195 ft.200 ft.
Markings: basic, in good conditionbasic, in good condition
Obstructions: 14 ft. tree, 240 ft. from runway, 35 ft. right of centerline, 2:1 slope to clear
+6 FT BRUSH 100-200 FT FM THLD, 60-125 FT RIGHT OF CNTRLN.
20 ft. tree, 215 ft. from runway
RWY 26 10-20 FT BRUSH & TREES 0-150 FT FM EOR, 90-125 FT LEFT OF CNTRLN; 10-20 FT BRUSH & TREES 150-200 FT FROM EOR, 35-125 FT LEFT OF CNTRLN.

Airport Ownership and Management from official FAA records

Ownership: Publicly-owned
Owner: TOWN OF KEARNY
912-C, TILBURY DRIVE
KEARNY, AZ 85137
Phone 520-363-5547
TOWN FAX NUMBER: 520-363-7527.
Manager: ANNA FLORES
912-C, TILBURY DRIVE P.O. BOX 639
KEARNY, AZ 85137
Phone 520-363-5547
TOWN MANAGER.

Airport Operational Statistics

Aircraft based on the field: 4
Single engine airplanes: 3
Ultralights: 1
    
Aircraft operations: avg 28/week *
76% transient general aviation
17% local general aviation
7% military
* for 12-month period ending 02 April 2020

Additional Remarks

FOR NOISE ABATEMENT AVOID SCHOOLS AND HOMES.
MEDICAL HELICOPTER BASE 1 NM NORTHWEST.
FOR AIRPORT CONDITIONS & INFORMATION CALL FBO: 520-363-5175.
FOR CD CTC ALBUQUERQUE ARTCC AT 505-856-4861.
BIRDS, WILDFLIFE, MILITARY OPS INVOF ARPT.
EXPECT TURBULENCE ON RWY 26 APCH WITH WIND FROM N AND ON DEP RWY 26.
CALM WIND USE RWY 08. RAPIDLY RISING TERRAIN ALL QUADRANTS EXCEPT SE QUADRANT.
NO LIGHTING ON AIRPORT, NIGHT OPERATIONS NOT RECOMMENDED.
FENCE 270 FT L/R OFF RWY 26 END.
FENCE 240 FT L/R OFF RWY 08 END.
DITCH BOTH SIDES RWY 08 END, 60 FT L/R OF CENTERLINE WITH 6 FT DROPS.

Instrument Procedures

There are no published instrument procedures at E67.

Some nearby airports with instrument procedures:

P13 - San Carlos Apache Airport (22 nm NE)
P08 - Coolidge Municipal Airport (27 nm W)
KIWA - Phoenix-Mesa Gateway Airport (41 nm NW)
KAVQ - Marana Regional Airport (41 nm S)
KCGZ - Casa Grande Municipal Airport (44 nm W)
 
Loc | Ops | Rwys | IFR | FBO | Links
Com | Nav | Svcs | Stats | Notes
Area around E67 (Kearny Airport)
 
Road maps at: MapQuest Bing Google
 
Aerial photo
WARNING: Photo may not be current or correct
Aerial photo of E67 (Kearny Airport)
Photo taken 18-Nov-2011
looking south.

Do you have a better or more recent aerial photo of Kearny Airport that you would like to share? If so, please send us your photo.

 
Sectional chart

 
Airport distance calculator
Flying to Kearny Airport? Find the distance to fly.

From to E67

Sunrise and sunset
Times for 26-Sep-2021
 Local
(UTC-7)
 Zulu
(UTC)
Morning civil twilight05:5112:51
Sunrise06:1513:15
Sunset18:1401:14
Evening civil twilight18:3901:39

Current date and time
Zulu (UTC)  26-Sep-2021 22:02:18
Local (UTC-7)  26-Sep-2021 15:02:18
 
METAR
KMZJ 
38nm SW 
262150Z AUTO 01008KT 10SM 26/16 A3003 RMK AO2 LTG DSNT NE-S
KIWA 
40nm W 
262155Z 36012KT 10SM -RA SCT020 OVC100 22/17 A3002
KAVQ 
41nm S 
262155Z AUTO 35009KT 10SM CLR 28/11 A2999 RMK AO2 T02780110
KCGZ 
44nm W 
262156Z AUTO 01010KT 10SM -RA FEW039 22/19 A3000 RMK AO2 RAB20 SLP149 P0000 T02170189
KCHD 
47nm W 
262147Z 35013KT 10SM SCT060 BKN080 OVC100 22/19 A3000
KFFZ 
48nm NW 
262154Z AUTO 03008KT 10SM OVC090 21/19 A3001 RMK AO2 SLP143 T02110189 PWINO TSNO $
TAF
KIWA 
40nm W 
261737Z 2618/2718 16007KT P6SM -RA SCT070 OVC100 TEMPO 2618/2621 01015G28KT 5SM -TSRA BKN060CB FM262100 04008G17KT P6SM FEW070 BKN100 BKN150 FM270200 28007KT P6SM SCT120 BKN250 FM270400 13017G28KT P6SM VCTS BKN120CB BKN200 FM270700 12007KT P6SM SCT110 SCT150
NOTAMs
Click for the latest NOTAMs
NOTAMs are issued by the DoD/FAA and will open in a separate window not controlled by AirNav.

 

 
 

Would you like to see your business listed on this page?

 If your business provides an interesting product or service to pilots, flight crews, aircraft, or users of the Kearny Airport, you should consider listing it here.  To start the listing process, click on the button below
 
Add a business
 

Other Pages about Kearny Airport

www.townofkearny.com/departments.html#airport
 
Update a link
 
Copyright © AirNav, LLC. All rights reserved. Privacy Policy  Contact